Stations météo

Publicité
Kinlochewe, Grande-Bretagne (99092): Température de l'air & dewpoint: 14.04.2019 13:00:00 - 20.04.2019 13:00:00 (BST)Kinlochewe, Grande-Bretagne (99092): Température de l'air -20cm: 14.04.2019 13:00:00 - 20.04.2019 13:00:00 (BST)Kinlochewe, Grande-Bretagne (99092): Quantités de précipitations: 14.04.2019 13:00:00 - 20.04.2019 13:00:00 (BST)
Date & Time tt [°C] td [°C] tt -20cm [°C] rr [mm]
20.04.2019 13:00:00 - - - -
20.04.2019 12:00:00 14,6 9,5 - 0,0
20.04.2019 11:00:00 15,8 10,0 - 0,0
20.04.2019 10:00:00 14,6 8,9 9,2 0,0
20.04.2019 09:00:00 13,9 8,6 - 0,0
20.04.2019 08:00:00 12,4 8,8 - 0,0
20.04.2019 07:00:00 12,9 9,0 - 0,0
20.04.2019 06:00:00 12,7 8,7 - -
20.04.2019 05:00:00 13,4 8,0 - 0,0
20.04.2019 04:00:00 14,5 8,1 - 0,0
20.04.2019 03:00:00 15,1 8,0 - 0,0
20.04.2019 02:00:00 15,1 7,6 - 0,0
20.04.2019 01:00:00 15,4 7,0 - 0,0
20.04.2019 00:00:00 16,2 6,8 - 0,0
19.04.2019 23:00:00 14,7 6,3 - 0,0
19.04.2019 22:00:00 12,6 5,5 - 0,0
19.04.2019 21:00:00 14,8 4,0 - 0,0
19.04.2019 20:00:00 18,7 3,0 - 0,0
19.04.2019 19:00:00 19,9 3,8 - 0,0
19.04.2019 18:00:00 19,9 5,5 - 0,0
19.04.2019 17:00:00 21,2 4,4 - 0,0
19.04.2019 16:00:00 22,1 6,1 - 0,0
19.04.2019 15:00:00 22,2 4,1 - 0,0
19.04.2019 14:00:00 21,3 3,9 - 0,0
19.04.2019 13:00:00 21,2 5,3 - 0,0
19.04.2019 12:00:00 20,4 7,4 - 0,0
19.04.2019 11:00:00 17,9 5,4 - 0,0
19.04.2019 10:00:00 14,8 4,1 8,4 0,0
19.04.2019 09:00:00 12,1 4,5 - 0,0
19.04.2019 08:00:00 8,0 4,7 - 0,0
19.04.2019 07:00:00 7,3 3,5 - 0,0
19.04.2019 06:00:00 7,6 4,6 - 0,0
19.04.2019 05:00:00 5,5 3,9 - 0,0
19.04.2019 04:00:00 5,7 4,0 - 0,0
19.04.2019 03:00:00 5,5 3,9 - 0,0
19.04.2019 02:00:00 8,2 5,0 - 0,0
19.04.2019 01:00:00 9,5 5,7 - 0,0
19.04.2019 00:00:00 8,6 5,8 - 0,0
18.04.2019 23:00:00 8,9 5,4 - 0,0
18.04.2019 22:00:00 10,7 5,5 - 0,0
18.04.2019 21:00:00 14,0 6,1 - 0,0
18.04.2019 20:00:00 16,7 5,5 - 0,0
18.04.2019 19:00:00 19,5 4,1 - 0,0
18.04.2019 18:00:00 20,2 4,8 - 0,0
18.04.2019 17:00:00 20,0 4,9 - 0,0
18.04.2019 16:00:00 19,4 5,1 - 0,0
18.04.2019 15:00:00 19,7 5,4 - 0,0
18.04.2019 14:00:00 19,5 3,1 - 0,0
18.04.2019 13:00:00 19,6 3,2 - 0,0
18.04.2019 12:00:00 18,8 4,6 - 0,0
18.04.2019 11:00:00 16,5 5,5 - 0,0
18.04.2019 10:00:00 12,6 4,2 8,0 0,0
18.04.2019 09:00:00 11,6 3,0 - 0,0
18.04.2019 08:00:00 9,6 3,0 - 0,0
18.04.2019 07:00:00 5,2 2,5 - 0,0
18.04.2019 06:00:00 5,3 2,0 - 0,0
18.04.2019 05:00:00 5,5 2,3 - 0,0
18.04.2019 04:00:00 6,0 2,4 - 0,0
18.04.2019 03:00:00 4,9 2,3 - 0,0
18.04.2019 02:00:00 5,9 2,5 - 0,0
18.04.2019 01:00:00 6,8 2,9 - 0,0
18.04.2019 00:00:00 6,2 2,7 - 0,0
17.04.2019 23:00:00 6,7 2,9 - 0,0
17.04.2019 22:00:00 8,4 2,9 - 0,0
17.04.2019 21:00:00 11,6 3,4 - 0,0
17.04.2019 20:00:00 13,9 3,7 - 0,0
17.04.2019 19:00:00 16,0 3,3 - 0,0
17.04.2019 18:00:00 15,8 3,4 - 0,0
17.04.2019 17:00:00 16,6 3,9 - 0,0
17.04.2019 16:00:00 16,4 3,8 - 0,0
17.04.2019 15:00:00 15,7 2,8 - 0,0
17.04.2019 14:00:00 14,7 4,2 - 0,0
17.04.2019 13:00:00 12,9 3,3 - 0,0
17.04.2019 12:00:00 12,7 4,0 - 0,0
17.04.2019 11:00:00 12,6 5,3 - 0,0
17.04.2019 10:00:00 9,1 3,2 7,7 0,0
17.04.2019 09:00:00 8,6 2,1 - 0,0
17.04.2019 08:00:00 7,7 2,8 - 0,0
17.04.2019 07:00:00 7,1 2,6 - 0,0
17.04.2019 06:00:00 7,6 2,2 - 0,0
17.04.2019 05:00:00 7,6 2,7 - 0,0
17.04.2019 04:00:00 7,6 3,5 - 0,0
17.04.2019 03:00:00 7,2 3,9 - 0,0
17.04.2019 02:00:00 7,3 4,5 - 0,2
17.04.2019 01:00:00 7,4 4,9 - 0,2
17.04.2019 00:00:00 7,4 5,2 - 0,4
16.04.2019 23:00:00 7,6 5,2 - 0,6
16.04.2019 22:00:00 7,6 5,4 - 0,6
16.04.2019 21:00:00 8,3 5,2 - 0,2
16.04.2019 20:00:00 8,8 5,5 - 0,2
16.04.2019 19:00:00 9,3 5,6 - 0,4
16.04.2019 18:00:00 9,1 6,1 - 0,8
16.04.2019 17:00:00 9,1 5,9 - 0,2
16.04.2019 16:00:00 10,2 5,2 - 0,0
16.04.2019 15:00:00 9,8 6,0 - 0,2
16.04.2019 14:00:00 9,7 6,0 - 0,0
16.04.2019 13:00:00 10,8 4,3 - 0,0
16.04.2019 12:00:00 10,7 4,9 - 0,0
16.04.2019 11:00:00 10,6 4,1 - 0,0
16.04.2019 10:00:00 10,4 4,1 7,7 0,0
16.04.2019 09:00:00 10,3 4,2 - 0,0
16.04.2019 08:00:00 9,2 2,4 - 0,0
16.04.2019 07:00:00 8,9 2,0 - 0,0
16.04.2019 06:00:00 8,2 1,8 - 0,0
16.04.2019 05:00:00 8,1 1,9 - 0,0
16.04.2019 04:00:00 8,3 1,9 - 0,0
16.04.2019 03:00:00 8,4 1,7 - 0,0
16.04.2019 02:00:00 8,5 1,7 - 0,0
16.04.2019 01:00:00 8,4 1,5 - 0,0
16.04.2019 00:00:00 8,6 1,3 - 0,0
15.04.2019 23:00:00 9,0 0,9 - 0,0
15.04.2019 22:00:00 9,3 0,6 - 0,0
15.04.2019 21:00:00 9,3 0,5 - 0,0
15.04.2019 20:00:00 9,8 0,4 - 0,0
15.04.2019 19:00:00 10,2 0,2 - 0,0
15.04.2019 18:00:00 11,2 -0,1 - 0,0
15.04.2019 17:00:00 12,0 -1,6 - 0,0
15.04.2019 16:00:00 12,5 -1,9 - 0,0
15.04.2019 15:00:00 11,6 -2,9 - 0,0
15.04.2019 14:00:00 11,5 -1,8 - 0,0
15.04.2019 13:00:00 11,1 -1,4 - 0,0
15.04.2019 12:00:00 10,5 -0,4 - 0,0
15.04.2019 11:00:00 9,0 -1,4 - 0,0
15.04.2019 10:00:00 7,3 -2,2 7,4 0,0
15.04.2019 09:00:00 6,6 -2,3 - 0,0
15.04.2019 08:00:00 5,4 -2,5 - 0,0
15.04.2019 07:00:00 4,3 -2,4 - 0,0
15.04.2019 06:00:00 4,8 -1,9 - 0,0
15.04.2019 05:00:00 5,1 -1,3 - 0,0
15.04.2019 04:00:00 4,9 -1,5 - 0,0
15.04.2019 03:00:00 5,2 -1,5 - 0,0
15.04.2019 02:00:00 5,9 -1,3 - 0,0
15.04.2019 01:00:00 5,3 -1,7 - 0,0
15.04.2019 00:00:00 5,8 -2,2 - 0,0
14.04.2019 23:00:00 6,1 -2,5 - 0,0
14.04.2019 22:00:00 6,4 -2,0 - 0,0
14.04.2019 21:00:00 7,0 -1,9 - 0,0
14.04.2019 20:00:00 7,6 -2,0 - 0,0
14.04.2019 19:00:00 8,3 -1,9 - 0,0
14.04.2019 18:00:00 8,8 -2,6 - 0,0
14.04.2019 17:00:00 9,3 -2,1 - 0,0
14.04.2019 16:00:00 9,5 -2,5 - 0,0
14.04.2019 15:00:00 9,9 -2,3 - 0,0
14.04.2019 14:00:00 10,7 -3,0 - 0,0
14.04.2019 13:00:00 10,3 -3,0 - 0,0

tt = Température de l'air
td = dewpoint
tt -20cm = Température de l'air -20cm
rr = Quantités de précipitations

stations d'obs. à proximité